sat.trackr.live / text

‹ back to catalog

STARLINK-33636

NORAD 63379 · 2025-063S

PAYLOAD ACTIVE UNKNOWN

§ Identity

Operator
Country
US
Launch date
2025-03-26
Launch site
AFWTR
Launch vehicle
Mass (kg)
RCS (m²)

Purposes: comms

External: N2YO · Heavens-Above · Gunter

§ Orbital elements

Epoch: 2026-05-25T03:24:32.135040Z

Period
93.99 min
Inclination
53.1613°
Eccentricity
0.0004261
Mean motion
15.32137226 rev/d
Perigee alt
466.5 km
Apogee alt
472.4 km
Semi-major
6,847.6 km
B*
9.4194e-4
RAAN
56.7183°
Arg perigee
77.0615°
Mean anomaly
283.0862°
Rev number
6,642

§ Raw data

STARLINK-336361 63379U 25063S   26145.14203860  .00029387  00000+0  94194-3 0  99942 63379  53.1613  56.7183 0004261  77.0615 283.0862 15.32137226 66427

JSON: /api/v1/satellites/63379 · /tle

For live sub-satellite position, see the globe view (requires WebGL).

§ Visibility from observer

Set your observer location to see the next 7 days of passes ≥ 10°. The values pass through the URL so the page stays shareable.

No JS? Fill the form by hand. The geolocation button needs JavaScript.